User: anonymous   Login
Location: Antichan
(42.9728°N, 0.6667°E)
Time: 04:36:17
(UTC+00:00)
Language:

SL-27 R/B - Orbit

View from above orbital plane
View from above orbital plane
View from above satellite
View from above satellite

Ground track
Ground track

The orbit data is extracted from the following two-line orbital elements,

1 40354U 14084B   20304.81958547  .00001380  00000-0  34526-4 0  9995
2 40354  74.7360 108.0050 0038304 229.8329 129.9528 15.40450523329371
Epoch (UTC): 30 October 2020 19:40:12
Eccentricity: 0.0038304
inclination: 74.7360°
perigee height: 418 km
apogee height: 471 km
right ascension of ascending node: 108.0050°
argument of perigee: 229.8329°
revolutions per day: 15.40450523
mean anomaly at epoch: 129.9528°
orbit number at epoch: 32937

The dashed part of the orbit path shows where the satellite is in the earth's shadow,  

DLR